MESHWX-3 Weather Reports


time (UTC)temp
C
wind
direction
speed
KPH
gust
KPH
rain 1hr
cm
rain 24hr
cm
rain mn
cm
humidity
%
barometer
mb
20260902201541 24 0.0 0.0 0.00 0.00 0.00 32 976.5
20260902194251 24 0.0 0.0 0.00 0.00 0.00 32 976.5
20260902194240 25 0.0 0.0 0.00 0.00 0.00 32 976.4
20260902190950 25 0.0 0.0 0.00 0.00 0.00 32 976.4
20260902190940 25 0.0 0.0 0.00 0.00 0.00 30 976.1
20260902183550 25 0.0 0.0 0.00 0.00 0.00 30 976.1
20260902183540 25 0.0 0.0 0.00 0.00 0.00 29 975.8
20260902180150 25 0.0 0.0 0.00 0.00 0.00 29 975.8
20260902180140 26 0.0 0.0 0.00 0.00 0.00 28 975.9
20260902172849 26 0.0 0.0 0.00 0.00 0.00 28 975.9
20260902172839 27 0.0 0.0 0.00 0.00 0.00 26 975.9
20260902165549 27 0.0 0.0 0.00 0.00 0.00 26 975.9
20260902165539 30 0.0 0.0 0.00 0.00 0.00 24 975.9
20260902162249 30 0.0 0.0 0.00 0.00 0.00 24 975.9
20260902162239 33 0.0 0.0 0.00 0.00 0.00 21 975.9
20260902154949 33 0.0 0.0 0.00 0.00 0.00 21 975.9
20260902154939 36 0.0 0.0 0.00 0.00 0.00 21 976.0
20260902151648 36 0.0 0.0 0.00 0.00 0.00 21 976.0
20260902151638 38 0.0 0.0 0.00 0.00 0.00 21 976.1
20260902144448 38 0.0 0.0 0.00 0.00 0.00 21 976.1
20260902144438 38 0.0 0.0 0.00 0.00 0.00 21 976.2
20260902143759 38 0.0 0.0 0.00 0.00 0.00 21 976.2
20260902141237 37 0.0 0.0 0.00 0.00 0.00 21 976.6
20260902134047 37 0.0 0.0 0.00 0.00 0.00 21 976.6
20260902134037 38 0.0 0.0 0.00 0.00 0.00 21 976.8
20260902130647 38 0.0 0.0 0.00 0.00 0.00 21 976.8
20260902130637 36 0.0 0.0 0.00 0.00 0.00 22 977.2
20260902123247 36 0.0 0.0 0.00 0.00 0.00 22 977.2
20260902123237 36 0.0 0.0 0.00 0.00 0.00 22 977.4
20260902115947 36 0.0 0.0 0.00 0.00 0.00 22 977.4
20260902115936 36 0.0 0.0 0.00 0.00 0.00 22 977.6
20260902112636 35 0.0 0.0 0.00 0.00 0.00 22 978.0
20260902105345 35 0.0 0.0 0.00 0.00 0.00 22 978.0
20260902105334 34 0.0 0.0 0.00 0.00 0.00 23 978.4
20260902102046 34 0.0 0.0 0.00 0.00 0.00 23 978.4
20260902102036 33 0.0 0.0 0.00 0.00 0.00 24 978.6
20260902094547 33 0.0 0.0 0.00 0.00 0.00 24 978.6
20260902094533 28 0.0 0.0 0.00 0.00 0.00 34 978.7
20260902091145 28 0.0 0.0 0.00 0.00 0.00 34 978.7
20260902091132 27 0.0 0.0 0.00 0.00 0.00 34 978.6
20260902083844 27 0.0 0.0 0.00 0.00 0.00 34 978.6
20260902083832 26 0.0 0.0 0.00 0.00 0.00 38 978.8
20260902082332 26 0.0 0.0 0.00 0.00 0.00 38 978.8
20260902080545 26 0.0 0.0 0.00 0.00 0.00 38 978.8
20260902080532 26 0.0 0.0 0.00 0.00 0.00 38 978.8
20260902073621 26 0.0 0.0 0.00 0.00 0.00 38 978.8
20260902073244 26 0.0 0.0 0.00 0.00 0.00 38 978.8
20260902073232 25 0.0 0.0 0.00 0.00 0.00 42 978.8
20260902065644 25 0.0 0.0 0.00 0.00 0.00 42 978.8
20260902065631 23 0.0 0.0 0.00 0.00 0.00 48 978.7
20260902062146 23 0.0 0.0 0.00 0.00 0.00 48 978.7
20260902062134 22 0.0 0.0 0.00 0.00 0.00 49 978.5
20260902054643 22 0.0 0.0 0.00 0.00 0.00 49 978.5
20260902054631 21 0.0 0.0 0.00 0.00 0.00 49 978.4
20260902051243 21 0.0 0.0 0.00 0.00 0.00 49 978.4
20260902051231 21 0.0 0.0 0.00 0.00 0.00 50 978.3
20260902043843 21 0.0 0.0 0.00 0.00 0.00 50 978.3
20260902043831 21 0.0 0.0 0.00 0.00 0.00 50 978.4
20260902040444 21 0.0 0.0 0.00 0.00 0.00 50 978.4
20260902040431 21 0.0 0.0 0.00 0.00 0.00 48 978.2
20260902033043 21 0.0 0.0 0.00 0.00 0.00 48 978.2
20260902033031 22 0.0 0.0 0.00 0.00 0.00 47 978.2
20260902025643 22 0.0 0.0 0.00 0.00 0.00 47 978.2
20260902025630 23 0.0 0.0 0.00 0.00 0.00 47 978.2
20260902022343 23 0.0 0.0 0.00 0.00 0.00 47 978.2
20260902022330 23 0.0 0.0 0.00 0.00 0.00 46 978.2
20260902015240 23 0.0 0.0 0.00 0.00 0.00 46 978.2
20260902015142 23 0.0 0.0 0.00 0.00 0.00 46 978.2
20260902015130 23 0.0 0.0 0.00 0.00 0.00 47 978.1
20260902011842 23 0.0 0.0 0.00 0.00 0.00 47 978.1
20260902011830 24 0.0 0.0 0.00 0.00 0.00 47 978.2
20260902004441 24 0.0 0.0 0.00 0.00 0.00 47 978.2
20260902004430 24 0.0 0.0 0.00 0.00 0.00 47 978.2
20260902001041 24 0.0 0.0 0.00 0.00 0.00 47 978.2
20260902001030 24 0.0 0.0 0.00 0.00 0.00 48 978.2
20260902000026 24 0.0 0.0 0.00 0.00 0.00 48 978.2
20260901233641 24 0.0 0.0 0.00 0.00 0.00 48 978.2
20260901233630 24 0.0 0.0 0.00 0.00 0.00 46 978.1
20260901230340 24 0.0 0.0 0.00 0.00 0.00 46 978.1
20260901230331 24 0.0 0.0 0.00 0.00 0.00 48 978.2
20260901223129 24 0.0 0.0 0.00 0.00 0.00 48 978.2
20260901223040 24 0.0 0.0 0.00 0.00 0.00 48 978.2
20260901215829 25 0.0 0.0 0.00 0.00 0.00 46 978.2
20260901215740 25 0.0 0.0 0.00 0.00 0.00 46 978.2
20260901212329 25 0.0 0.0 0.00 0.00 0.00 47 978.0
20260901212240 25 0.0 0.0 0.00 0.00 0.00 47 978.0
20260901205029 25 0.0 0.0 0.00 0.00 0.00 48 977.4
20260901204840 25 0.0 0.0 0.00 0.00 0.00 48 977.4